Regional Weather Roundup
Issued by NWS

Home | Current Version | Previous Version | Text Only | Print | Product List | Glossary On
Versions: 1 2 3 4 5 6 7 8 9 10 11 12 13 14 15 16 17 18 19 20 21 22 23 24 25 26 27 28 29 30 31 32 33 34 35 36 37 38 39 40 41 42 43 44 45 46 47 48 49 50
000
ASUS43 KLOT 221523
RWRIL

ILLINOIS REGIONAL WEATHER ROUNDUP
NATIONAL WEATHER SERVICE CHICAGO/ROMEOVILLE IL
1000 AM CDT WED OCT 22 2014

NOTE: "FAIR" INDICATES FEW OR NO CLOUDS BELOW 12,000 FEET WITH NO
SIGNIFICANT WEATHER AND/OR OBSTRUCTIONS TO VISIBILITY.

* THESE STATIONS ARE NOT UNDER NWS QUALITY CONTROL. THEY ALSO MAY NOT
  REPORT WEATHER SUCH AS PRECIPITATION OR FOG.

ILZ001-002-007-009-015-016-024-221600-
NORTHWEST ILLINOIS

CITY           SKY/WX    TMP DP  RH WIND       PRES   REMARKS
MOLINE         SUNNY     46  40  79 E6        30.35R
STERLING*      SUNNY     48  43  81 SE7       30.35S
SAVANNA*       SUNNY     50  40  67 SE6       30.35R
$$

ILZ003-004-008-010-011-017-018-221600-
NORTH CENTRAL ILLINOIS

CITY           SKY/WX    TMP DP  RH WIND       PRES   REMARKS
ROCKFORD       SUNNY     46  39  76 CALM      30.37F
FREEPORT*      SUNNY     45  41  85 SE7       30.36F
ROCHELLE*      SUNNY     48  41  76 CALM      30.36S
DE KALB*       MOSUNNY   47  40  76 CALM      30.36S
PERU*          SUNNY     50  38  64 SE5       30.37S
$$

ILZ005-006-012>014-019>023-221600-
NORTHEAST ILLINOIS

CITY           SKY/WX    TMP DP  RH WIND       PRES   REMARKS
CHICAGO-OHARE  MOSUNNY   49  40  71 SE7       30.36R
CHICAGO-MIDWAY MOSUNNY   49  37  63 VRB5      30.37R
AURORA         SUNNY     50  40  68 CALM      30.36S
LANSING*       SUNNY     47  38  71 E3        30.38S
JOLIET*        SUNNY     48  38  68 SE3       30.38R
WAUKEGAN       PTSUNNY   50  42  74 CALM      30.35F
DUPAGE AIRPORT SUNNY     51  42  71 N3        30.35S
KANKAKEE*      SUNNY     48  39  69 E5        30.38R
WHEELING       PTSUNNY   51  40  65 E5        30.37R
MORRIS*        SUNNY     49  40  71 SE3       30.36S
ROMEOVILLE*    SUNNY     48  37  65 SE3       30.37S
NORTHERLY ISL    N/A     49  39  68 SE6         N/A
$$

LMZ740>746-221600-
SOUTHERN LAKE MICHIGAN

STATION/POSITION SKY/WX   TEMP    WIND        PRES    VSBY  WAVE
                          AIR SEA DIR/SP/G                  HT/PER
                          (F)     (DEG/KT/KT) (MB)    (MI)  (FT/S)
SOUTHERN BUOY              47 54  110/  6/  8 1029.1R         2/ 4
WAUKEGAN HARBOR            49     120/  6/  8   N/A
BURNHAM HARBOR             50     100/  4/  6   N/A
CALUMET HARBOR             47     110/  4/  6 1027.3R
MICHIGAN CITY              45      90/  6/  7   N/A
$$

ILZ025>027-034>036-040-047-049-050-058-095>099-221600-
WEST-CENTRAL ILLINOIS

CITY           SKY/WX    TMP DP  RH WIND       PRES   REMARKS
QUINCY         SUNNY     49  41  74 SE10      30.32R
GALESBURG*     SUNNY     49  41  74 SE7       30.34S
MACOMB*        SUNNY     48  43  81 SE10      30.36S
JACKSONVILLE*  SUNNY     52  43  71 SE13      30.34S
PITTSFIELD*    SUNNY     51  42  72 SE7       30.34R
$$

ILZ028>032-037-038-041>044-048-051>054-059>061-221600-
CENTRAL ILLINOIS

CITY           SKY/WX    TMP DP  RH WIND       PRES   REMARKS
PONTIAC        SUNNY     48  38  68 SE6       30.38S
BLOOMINGTON    SUNNY     50  41  71 SE6       30.37R
DECATUR        SUNNY     49  40  71 SE8       30.36R
PEORIA         SUNNY     49  40  71 E7        30.36R
LACON*         SUNNY     47  40  76 SE6       30.35F
LINCOLN*       SUNNY     51  40  64 SE3       30.35S
SPRINGFIELD    SUNNY     51  40  65 SE6       30.36R
TAYLORVILLE    SUNNY     48  39  71 SE8       30.35R
$$

ILZ033-039-045-046-055>057-062-063-221600-
EAST-CENTRAL ILLINOIS

CITY           SKY/WX    TMP DP  RH WIND       PRES   REMARKS
CHAMPAIGN      SUNNY     49  39  68 E8        30.35R
DANVILLE*      SUNNY     49  37  62 NE7       30.34R
RANTOUL*         N/A     51  38  61 E7        30.36R
MATTOON        SUNNY     49  39  68 E10       30.34R
PARIS*         SUNNY     51  38  62 NE6       30.35S
$$

ILZ079-100>102-221600-
SOUTHWEST ILLINOIS

CITY           SKY/WX    TMP DP  RH WIND       PRES   REMARKS
ALTON          SUNNY     50  43  76 E9        30.34R
BELLEVILLE     SUNNY     48  45  87 NE6       30.33R FOG
CAHOKIA*       SUNNY     51  44  77 SE5       30.33S
SPARTA*        SUNNY     51  44  76 CALM      30.34R
$$

ILZ064>066-069>071-074>076-080>082-084>086-088>090-092>094-221600-
SOUTH-CENTRAL ILLINOIS

CITY           SKY/WX    TMP DP  RH WIND       PRES   REMARKS
CARBONDALE     SUNNY     50  44  80 E7        30.32R
CAIRO*         SUNNY     57  47  67 E9        30.30F
EFFINGHAM*     SUNNY     52  35  51 E9        30.35R
MARION         SUNNY     52  45  76 E12       30.33R
MT. VERNON     SUNNY     52  43  71 E7        30.34R
CENTRALIA*     SUNNY     53  41  65 E6        30.33S
SALEM*         SUNNY     53  44  70 SE7       30.34R
METROPOLIS*    SUNNY     54  46  73 E5        30.30S
$$

ILZ067-068-072-073-078-083-087-091-221600-
SOUTHEAST ILLINOIS

CITY           SKY/WX    TMP DP  RH WIND       PRES   REMARKS
LAWRENCEVILLE  SUNNY     50  40  68 E6        30.34R
FLORA*         SUNNY     49  40  71 NE8       30.34S
FAIRFIELD*     SUNNY     53  40  61 E6        30.32S
HARRISBURG*    SUNNY     53  43  69 E8        30.34R
ROBINSON*      SUNNY     53  41  63 E8        30.35S
CARMI*         SUNNY     55  43  65 E5        30.33R
$$

ABBREVIATIONS USED IN REMARKS
   TC - TEMPERATURE IN CELSIUS
  WCI - WIND CHILL INDEX
   HX - HEAT INDEX
  VSB - VISIBILITY
$$




USA.gov is the U.S. government's official web portal to all federal, state and local government web resources and services.